�_�E�����[�h���������F2023/10/26 13:03:56

,�F�J,�F�J,�F�J
�N����,�ō��C��(��),�ō��C��(��),�ō��C��(��)
,,,
,,�i�����,�ώ��ԍ�
2017/7/1,24.3,8,1
2017/7/2,32.8,8,1
2017/7/3,32.8,8,1
2017/7/4,28.2,8,1
2017/7/5,34.2,8,1
2017/7/6,32.6,8,1
2017/7/7,33.8,8,1
2017/7/8,35.6,8,1
2017/7/9,35.8,8,1
2017/7/10,36.2,8,1
2017/7/11,34.9,8,1
2017/7/12,35.9,8,1
2017/7/13,34.0,8,1
2017/7/14,35.3,8,1
2017/7/15,35.6,8,1
2017/7/16,34.7,8,1
2017/7/17,36.1,8,1
2017/7/18,31.8,8,1
2017/7/19,33.3,8,1
2017/7/20,34.6,8,1
2017/7/21,36.2,8,1
2017/7/22,36.1,8,1
2017/7/23,29.2,8,1
2017/7/24,31.8,8,1
2017/7/25,32.9,8,1
2017/7/26,26.4,8,1
2017/7/27,27.7,8,1
2017/7/28,31.9,8,1
2017/7/29,29.8,8,1
2017/7/30,29.0,8,1
2017/7/31,34.3,8,1
2017/8/1,29.8,8,1
2017/8/2,25.5,8,1
2017/8/3,28.6,8,1
2017/8/4,28.2,8,1
2017/8/5,32.9,8,1
2017/8/6,33.8,8,1
2017/8/7,34.9,8,1
2017/8/8,32.0,8,1
2017/8/9,37.8,8,1
2017/8/10,28.4,8,1
2017/8/11,25.7,8,1
2017/8/12,30.2,8,1
2017/8/13,31.8,8,1
2017/8/14,26.7,8,1
2017/8/15,23.1,8,1
2017/8/16,23.0,8,1
2017/8/17,29.4,8,1
2017/8/18,27.8,8,1
2017/8/19,32.3,8,1
2017/8/20,29.0,8,1
2017/8/21,31.2,8,1
2017/8/22,32.6,8,1
2017/8/23,34.7,8,1
2017/8/24,36.4,8,1
2017/8/25,32.0,8,1
2017/8/26,34.5,8,1
2017/8/27,31.1,8,1
2017/8/28,31.1,8,1
2017/8/29,33.5,8,1
2017/8/30,32.0,8,1
2017/8/31,25.1,8,1
2018/7/1,35.3,8,1
2018/7/2,36.7,8,1
2018/7/3,35.9,8,1
2018/7/4,34.7,8,1
2018/7/5,27.7,8,1
2018/7/6,23.4,8,1
2018/7/7,23.7,8,1
2018/7/8,29.7,8,1
2018/7/9,33.4,8,1
2018/7/10,35.5,8,1
2018/7/11,35.9,8,1
2018/7/12,31.8,8,1
2018/7/13,36.1,8,1
2018/7/14,37.2,8,1
2018/7/15,37.8,8,1
2018/7/16,38.2,8,1
2018/7/17,37.8,8,1
2018/7/18,38.9,8,1
2018/7/19,38.0,8,1
2018/7/20,37.3,8,1
2018/7/21,38.0,8,1
2018/7/22,37.9,8,1
2018/7/23,41.1,8,1
2018/7/24,37.4,8,1
2018/7/25,34.3,8,1
2018/7/26,30.5,8,1
2018/7/27,31.6,8,1
2018/7/28,30.4,8,1
2018/7/29,34.1,8,1
2018/7/30,34.5,8,1
2018/7/31,35.9,8,1
2018/8/1,38.3,8,1
2018/8/2,37.8,8,1
2018/8/3,38.7,8,1
2018/8/4,37.0,8,1
2018/8/5,38.6,8,1
2018/8/6,34.3,8,1
2018/8/7,24.9,8,1
2018/8/8,28.7,8,1
2018/8/9,35.6,8,1
2018/8/10,36.9,8,1
2018/8/11,33.8,8,1
2018/8/12,32.0,8,1
2018/8/13,32.7,8,1
2018/8/14,36.4,8,1
2018/8/15,36.7,8,1
2018/8/16,33.5,8,1
2018/8/17,29.1,8,1
2018/8/18,28.7,8,1
2018/8/19,29.0,8,1
2018/8/20,28.9,8,1
2018/8/21,34.6,8,1
2018/8/22,37.7,8,1
2018/8/23,35.4,8,1
2018/8/24,33.3,8,1
2018/8/25,37.6,8,1
2018/8/26,38.3,8,1
2018/8/27,36.8,8,1
2018/8/28,29.0,8,1
2018/8/29,29.2,8,1
2018/8/30,34.0,8,1
2018/8/31,35.3,8,1
